Погода в Великове

Россия / Владимирская область     56°09′29″N   42°48′40″E
темп.,
°C
ветер,
м/с
пор.,
м/с
влажн.,
%
обл.,
%
осадки,
мм/ч
давл.,
гПа
погр.,
м
20 сентября, пн
пн2000:00+5в41161100 0.0 1025360
03:00+5всв51264100 0.0 1025461
06:00+4в51368100 0.0 1024566
09:00+6в61364100 0.0 1025672
12:00+8в71054100 0.0 10241049
15:00+10в61149100 0.0 10241231
18:00+9в61151100 0.0 10231268
21:00+8в61152100 0.1 10231122
21 сентября, вт
вт2100:00+7в51055100 0.0 1023978
03:00+5в51169100 0.3 1021684
06:00+5в61391100 1.7 1020605
09:00+5в61487100 2.5 1020717
12:00+6в61383100 0.3 1019733
15:00+6в61381100 1.1 1018718
18:00+7в61478100 0.6 1017915
21:00+7в61488100 2.6 1016827
22 сентября, ср
ср2200:00+7в51277100 1.6 1015621
03:00+6всв51284100 3.3 1014568
06:00+5всв51295100 5.7 1013620
09:00+6всв51294100 9.9 1013726
12:00+7в51092100 0.0 1014583
15:00+8всв51092100 0.0 1014564
18:00+8всв51194100 0.0 1015394
21:00+8всв5119440 0.1 1014396
23 сентября, чт
чт2300:00+8вюв51095100 0.0 1015448
03:00+9юв3794100 0.1 1016296
06:00+6ююв259781 0.1 1017111
09:00+8ююв2584100 0.1 1018252
12:00+12юв3467100 0.0 1018588
15:00+12вюв2467100 0.0 1017651
18:00+10св2491100 0.9 1017108
21:00+9всв1298100 1.9 101648
24 сентября, пт
пт2400:00+10ююв2598100 0.4 1015162
03:00+7ю2297100 0.4 101643
06:00+7ююв2397100 0.0 101677
09:00+9ю1394100 1.1 1015143
12:00+9ю1197100 3.7 101366
15:00+9ююв2896100 6.7 1012578
18:00+9ююв3897100 1.3 1011551
21:00+9ю2697100 1.4 1011305